Weather in Asuncion

Paraguay     25˚17′53″S   57˚37′21″W
temp.,
°C
wind,
m/s
gust,
m/s
humid.,
%
clouds,
%
prec.,
mm/h
press.,
hPa
HPBL,
m
30 november, mon
mon3000:00+29˚ene235133 0.0 100756
03:00+27˚ne385452 0.0 1006193
06:00+24˚e2377100 1.5 100960
09:00+24˚sse81485100 6.9 1014720
12:00+27˚se5876100 2.1 1013636
15:00+30˚s675192 2.1 10121111
18:00+27˚sse466390 0.0 1011587
21:00+23˚se398494 0.4 1012425
1 december, tue
tue100:00+22˚s368981 0.0 1012193
03:00+21˚s379341 0.0 1011264
06:00+21˚sse24944 0.0 1011118
09:00+27˚e23653 0.0 1013683
12:00+33˚n23450 0.0 10111501
15:00+36˚wnw22380 0.0 10072065
18:00+34˚wsw114545 0.0 10051541
21:00+29˚se385868 0.0 1006261
2 december, wed
wed200:00+26˚ese410670 0.0 1006260
03:00+24˚ene25790 1.0 1005174
06:00+22˚e259232 2.1 1005147
09:00+27˚ene477656 3.4 1007476
12:00+35˚nne584550 0.2 10051710
15:00+35˚nnw5104348 0.2 999741
18:00+25˚e81388100 1.8 1000474
21:00+22˚se6895100 54.8 1004237
3 december, thu
thu300:00+21˚nne4896100 4.9 1006369
03:00+21˚nnw3697100 6.9 1005386
06:00+21˚nw3797100 0.4 1006396
09:00+24˚w4683100 0.8 1008762
12:00+26˚w237197 0.2 1007872
15:00+27˚sw336895 0.3 1006913
18:00+27˚ssw336744 0.0 1005872
21:00+22˚sse238023 0.0 100743
4 december, fri
fri400:00+22˚se35840 0.0 1008116
03:00+21˚sse23910 0.0 100886
06:00+20˚se37930 0.0 1009180
09:00+26˚e367145 0.0 1011626
12:00+31˚ese125599 0.0 10111401
15:00+27˚s2368100 0.1 1009112
18:00+29˚s466225 0.1 10081139
21:00+26˚s366043 0.1 1010194